Powrót do katalogu

JILIN-1 GAOFEN 07C 01 XING

AktywnyNaukaSSO
NORAD 66995·PAYLOAD·🇨🇳 China
Ta nazwa satelity nie została jeszcze potwierdzona przez oficjalne źródła.

Wystrzelony Dec 10, 2025 z Jiuquan Satellite Launch Center

Loading…

Następne Przeloty (najbliższe 24 godziny)

TLE

ŚwieżeSource: Space-Track

Epoka: Sep 14, 2026, 11:15 UTC

1 66995U 25292C   26257.46918170  .00003231  00000-0  21798-3 0  9992
2 66995  97.6250 332.4119 0015840  57.5924 302.6833 15.07245223 41897

Śledź JILIN-1 GAOFEN 07C 01 XING w czasie rzeczywistym z AllMySat

Download on the App Store